SPOT 7 (40053 NORAD) Tracking and Keplerian Element Data

This shows tracking and keplerian element data for the satellite.

Feedback or suggestion? Click here.




ElementValue
Catalog40053
NameSPOT 7
Epoch Orbit25620
Epoch Day112.74537473
Epoch Year2019
RAAN180.1129
Inclination98.1463
Eccentricity0.0001451
Argument of Perigee77.135
Mean Anonmoly283.0007
Mean Motion14.58577258
Decay Rate-2.7E-07
L11 40053U 14034A 19112.74537473 -.00000027 00000-0 39999-5 0 9992
L22 40053 98.1463 180.1129 0001451 77.1350 283.0007 14.58577258256208

Live tracking and technical data element details for SPOT 7 (NORAD 40053). SPOT 7 can be tracked NOW for your location showing map with azimuth and elevation plus other details from your city location.

Track the satellite on the map from your city or location and see movement details for azimuth, elevation, latitude, longitude, range, height, and movement on the map or in text.







IsCatalogInMostPopularTable: catalog: 40053, numindb: 237
Update: records affected: 1



GetName: 40053 SPOT 7

Hit Count: updated at: Tue, 23 Apr 2019 20:59:00 GMT